• In United Kingdom
  • List of Countries
  • For 7 days
  • Water Temperature
  • Satellite Maps
  • Weather Map
  • Weather Widgets
  • user-avatar
    Login

    Hourly Weather Salzburg

    Today, 11 December, Monday

    Time Temperature Precipitation Wind Pressure Humidity
    00:00 -8°C° 0 mm 3 mps 609 mmHg 84%
    01:00 -7°C° 0 mm 3 mps 609 mmHg 85%
    02:00 -7°C° 0 mm 3 mps 609 mmHg 85%
    03:00 -6°C° 0 mm 3 mps 609 mmHg 85%
    04:00 -6°C° 0 mm 3 mps 609 mmHg 86%
    05:00 -5°C° 0 mm 3 mps 608 mmHg 86%
    06:00 -5°C° 0 mm 3 mps 608 mmHg 86%
    07:00 -4°C° 0 mm 3 mps 609 mmHg 87%
    08:00 -4°C° 0.1 mm 3 mps 608 mmHg 86%
    09:00 -3°C° 0.1 mm 4 mps 608 mmHg 86%
    10:00 -3°C° 0.1 mm 4 mps 608 mmHg 85%
    11:00 -2°C° 0 mm 4 mps 608 mmHg 87%
    12:00 -1°C° 0 mm 4 mps 608 mmHg 88%
    13:00 +1°C° 0 mm 3 mps 607 mmHg 91%
    14:00 0°C° 0 mm 3 mps 607 mmHg 90%
    15:00 -1°C° 0 mm 4 mps 607 mmHg 90%
    16:00 -1°C° 0 mm 4 mps 607 mmHg 89%
    17:00 -1°C° 0 mm 4 mps 607 mmHg 89%
    18:00 -2°C° 0 mm 4 mps 607 mmHg 89%
    19:00 -2°C° 0 mm 4 mps 607 mmHg 88%
    20:00 -2°C° 0.1 mm 4 mps 607 mmHg 89%
    21:00 -1°C° 0.1 mm 3 mps 608 mmHg 89%
    22:00 -2°C° 0.1 mm 3 mps 608 mmHg 90%
    23:00 -2°C° 0.7 mm 3 mps 609 mmHg 91%

    Tomorrow, 12 December, Tuesday

    Time Temperature Precipitation Wind Pressure Humidity
    00:00 -2°C° 0.7 mm 3 mps 609 mmHg 92%
    01:00 -2°C° 0.7 mm 3 mps 610 mmHg 93%
    02:00 -2°C° 1.5 mm 3 mps 610 mmHg 94%
    03:00 -2°C° 1.5 mm 3 mps 611 mmHg 94%
    04:00 -2°C° 1.5 mm 3 mps 611 mmHg 94%
    05:00 -4°C° 1 mm 3 mps 612 mmHg 94%
    06:00 -4°C° 1 mm 3 mps 613 mmHg 94%
    07:00 -4°C° 1 mm 3 mps 614 mmHg 94%
    08:00 -5°C° 0.9 mm 3 mps 615 mmHg 94%
    09:00 -5°C° 0.9 mm 3 mps 616 mmHg 94%
    10:00 -6°C° 0.9 mm 3 mps 617 mmHg 94%
    11:00 -6°C° 0.6 mm 3 mps 617 mmHg 93%
    12:00 -6°C° 0.6 mm 3 mps 618 mmHg 93%
    13:00 -7°C° 0.6 mm 3 mps 618 mmHg 92%
    14:00 -6°C° 0.5 mm 2 mps 618 mmHg 93%
    15:00 -7°C° 0.5 mm 2 mps 619 mmHg 93%
    16:00 -7°C° 0.5 mm 1 mps 619 mmHg 93%
    17:00 -7°C° 0.4 mm 1 mps 620 mmHg 93%
    18:00 -7°C° 0.4 mm 1 mps 620 mmHg 93%
    19:00 -8°C° 0.4 mm 1 mps 620 mmHg 93%
    20:00 -8°C° 0.4 mm 1 mps 621 mmHg 93%
    21:00 -9°C° 0.4 mm 2 mps 621 mmHg 93%
    22:00 -9°C° 0.4 mm 2 mps 622 mmHg 93%
    23:00 -9°C° 0.4 mm 2 mps 622 mmHg 93%

    Day after tomorrow, 13 December, Wednesday

    Time Temperature Precipitation Wind Pressure Humidity
    00:00 -8°C° 0.4 mm 1 mps 622 mmHg 92%
    01:00 -8°C° 0.4 mm 1 mps 623 mmHg 92%
    02:00 -8°C° 0.2 mm 1 mps 623 mmHg 92%
    03:00 -9°C° 0.2 mm 1 mps 623 mmHg 92%
    04:00 -9°C° 0.2 mm 1 mps 623 mmHg 92%
    05:00 -9°C° 0.1 mm 1 mps 623 mmHg 91%
    06:00 -10°C° 0.1 mm 1 mps 623 mmHg 90%
    07:00 -10°C° 0.1 mm 1 mps 623 mmHg 89%
    08:00 -9°C° 0 mm 1 mps 623 mmHg 87%
    09:00 -8°C° 0 mm 1 mps 624 mmHg 85%
    10:00 -8°C° 0 mm 1 mps 624 mmHg 83%
    11:00 -7°C° 0 mm 1 mps 623 mmHg 81%
    12:00 -4°C° 0 mm 1 mps 623 mmHg 79%
    13:00 -5°C° 0 mm 2 mps 623 mmHg 78%
    14:00 -6°C° 0 mm 2 mps 622 mmHg 80%
    15:00 -7°C° 0 mm 2 mps 621 mmHg 83%
    16:00 -7°C° 0 mm 2 mps 620 mmHg 86%
    17:00 -8°C° 0 mm 2 mps 620 mmHg 86%
    18:00 -8°C° 0 mm 2 mps 620 mmHg 86%
    19:00 -8°C° 0 mm 2 mps 619 mmHg 86%
    20:00 -8°C° 0 mm 2 mps 619 mmHg 85%
    21:00 -8°C° 0 mm 2 mps 619 mmHg 84%
    22:00 -8°C° 0 mm 2 mps 618 mmHg 83%
    23:00 -9°C° 0 mm 3 mps 618 mmHg 83%

    14 December, Thursday

    Time Temperature Precipitation Wind Pressure Humidity
    00:00 -9°C° 0 mm 3 mps 618 mmHg 82%
    01:00 -8°C° 0 mm 3 mps 617 mmHg 82%
    02:00 -8°C° 0 mm 3 mps 617 mmHg 82%
    03:00 -7°C° 0 mm 3 mps 617 mmHg 81%
    04:00 -7°C° 0 mm 3 mps 617 mmHg 81%
    05:00 -7°C° 0 mm 3 mps 617 mmHg 81%
    06:00 -6°C° 0 mm 2 mps 617 mmHg 82%
    07:00 -6°C° 0 mm 2 mps 617 mmHg 82%
    08:00 -5°C° 0.1 mm 2 mps 617 mmHg 83%
    09:00 -3°C° 0.1 mm 1 mps 617 mmHg 84%
    10:00 -2°C° 0.1 mm 1 mps 618 mmHg 85%
    11:00 -2°C° 0.6 mm 1 mps 617 mmHg 86%
    12:00 -2°C° 0.6 mm 1 mps 617 mmHg 88%
    13:00 -2°C° 0.6 mm 1 mps 617 mmHg 89%
    14:00 -2°C° 0.3 mm 1 mps 616 mmHg 91%
    15:00 -3°C° 0.3 mm 1 mps 616 mmHg 92%
    16:00 -3°C° 0.3 mm 1 mps 615 mmHg 93%
    17:00 -4°C° 0.3 mm 1 mps 614 mmHg 93%
    18:00 -4°C° 0.3 mm 1 mps 614 mmHg 92%
    19:00 -7°C° 0.3 mm 2 mps 613 mmHg 91%
    20:00 -7°C° 0.1 mm 2 mps 613 mmHg 89%
    21:00 -8°C° 0.1 mm 3 mps 612 mmHg 87%
    22:00 -8°C° 0.1 mm 3 mps 612 mmHg 85%
    23:00 -8°C° 0.1 mm 3 mps 612 mmHg 85%

    15 December, Friday

    Time Temperature Precipitation Wind Pressure Humidity
    00:00 -7°C° 0.1 mm 3 mps 612 mmHg 86%
    01:00 -7°C° 0.1 mm 3 mps 611 mmHg 87%
    02:00 -6°C° 1 mm 2 mps 612 mmHg 90%
    03:00 -6°C° 1 mm 2 mps 612 mmHg 92%
    04:00 -4°C° 1 mm 1 mps 613 mmHg 95%
    05:00 -4°C° 0.5 mm 1 mps 613 mmHg 95%
    06:00 -4°C° 0.5 mm 1 mps 613 mmHg 95%
    07:00 -6°C° 0.5 mm 1 mps 613 mmHg 94%
    08:00 -4°C° 0.2 mm 1 mps 613 mmHg 93%
    09:00 -4°C° 0.2 mm 1 mps 613 mmHg 92%
    10:00 -4°C° 0.2 mm 1 mps 613 mmHg 91%
    11:00 -3°C° 0.2 mm 1 mps 613 mmHg 91%
    12:00 -3°C° 0.2 mm 1 mps 612 mmHg 90%
    13:00 -2°C° 0.2 mm 1 mps 612 mmHg 89%
    14:00 -3°C° 0.6 mm 1 mps 611 mmHg 91%
    15:00 -4°C° 0.6 mm 1 mps 611 mmHg 92%
    16:00 -4°C° 0.6 mm 1 mps 611 mmHg 94%
    17:00 -6°C° 1 mm 1 mps 611 mmHg 94%
    18:00 -6°C° 1 mm 1 mps 611 mmHg 94%
    19:00 -8°C° 1 mm 2 mps 611 mmHg 94%
    20:00 -8°C° 0.5 mm 2 mps 611 mmHg 94%
    21:00 -7°C° 0.5 mm 1 mps 611 mmHg 94%
    22:00 -7°C° 0.5 mm 1 mps 612 mmHg 94%
    23:00 -7°C° 0.3 mm 1 mps 612 mmHg 94%

    16 December, Saturday

    Time Temperature Precipitation Wind Pressure Humidity
    00:00 -8°C° 0.3 mm 1 mps 612 mmHg 93%
    01:00 -8°C° 0.3 mm 1 mps 612 mmHg 92%
    02:00 -9°C° 0.2 mm 2 mps 612 mmHg 93%
    03:00 -9°C° 0.2 mm 2 mps 612 mmHg 93%
    04:00 -9°C° 0.2 mm 2 mps 612 mmHg 93%
    05:00 -9°C° 0.3 mm 2 mps 612 mmHg 93%
    06:00 -9°C° 0.3 mm 2 mps 613 mmHg 93%
    07:00 -9°C° 0.3 mm 2 mps 613 mmHg 93%
    08:00 -9°C° 0.2 mm 2 mps 614 mmHg 92%
    09:00 -9°C° 0.2 mm 2 mps 614 mmHg 92%
    10:00 -8°C° 0.2 mm 2 mps 615 mmHg 91%
    11:00 -8°C° 0.2 mm 2 mps 615 mmHg 90%
    12:00 -7°C° 0.2 mm 2 mps 615 mmHg 89%
    13:00 -7°C° 0.2 mm 2 mps 616 mmHg 88%
    14:00 -8°C° 0.3 mm 2 mps 616 mmHg 90%
    15:00 -8°C° 0.3 mm 2 mps 616 mmHg 92%
    16:00 -8°C° 0.3 mm 2 mps 616 mmHg 94%
    17:00 -9°C° 0.5 mm 2 mps 617 mmHg 94%
    18:00 -9°C° 0.5 mm 2 mps 618 mmHg 94%
    19:00 -9°C° 0.5 mm 2 mps 618 mmHg 95%
    20:00 -9°C° 0.2 mm 2 mps 618 mmHg 95%
    21:00 -10°C° 0.2 mm 2 mps 619 mmHg 95%
    22:00 -10°C° 0.2 mm 2 mps 619 mmHg 95%
    23:00 -10°C° 0.2 mm 2 mps 619 mmHg 93%
    Show more